Regional Weather Roundup
Issued by NWS

Home | Current Version | Previous Version | Graphics & Text | Print | Product List | Glossary On
Versions: 1 2 3 4 5 6 7 8 9 10 11 12 13 14 15 16 17 18 19 20 21 22 23 24 25 26 27 28 29 30 31 32 33 34 35 36 37 38 39 40 41 42 43 44 45 46 47 48 49 50
000
ASUS43 KLSX 171357
RWRMO

WEATHER SUMMARY FOR MISSOURI
NATIONAL WEATHER SERVICE SPRINGFIELD MO
800 AM CST WED JAN 17 2018

NOTE: "FAIR" INDICATES FEW OR NO CLOUDS BELOW 12,000 FEET WITH NO
       SIGNIFICANT WEATHER AND/OR OBSTRUCTIONS TO VISIBILITY.
       CURRENT SKY AND/OR WEATHER CONDITIONS ARE NOT AVAILABLE FOR
       CHILLICOTHE AND FARMINGTON.

MOZ001>031-035>038-043-044-053-054-171500-
...NORTHERN AND WESTERN MISSOURI...

CITY           SKY/WX    TMP DP  RH WIND       PRES   REMARKS
KANSAS CTY INT CLOUDY    -1  -4  87 S7        30.63F WCI -14
LEE`S SUMMIT   CLOUDY     3   0  87 SW8       30.65S WCI -10
ST JOSEPH        N/A    N/A N/A N/A MISG      30.65F
CHILLICOTHE      N/A     -3  -8  79 CALM      30.66F

$$
MOZ066>068-077>081-088>096-101>105-171500-
...SOUTHWEST MISSOURI...

CITY           SKY/WX    TMP DP  RH WIND       PRES   REMARKS
SPRINGFIELD    CLOUDY    -5 -10  79 SW5       30.65R WCI -16
JOPLIN         PTCLDY    -2  -5  87 S6        30.70S WCI -14
BRANSON        CLOUDY     3   0  85 SW3       30.67S

$$
MOZ032>034-039>042-045>050-055>058-069>072-171500-
...CENTRAL MISSOURI...

CITY           SKY/WX    TMP DP  RH WIND       PRES   REMARKS
COLUMBIA       NOT AVBL
JEFFERSON CITY CLOUDY    -1  -5  82 CALM      30.72R
ROLLA          CLOUDY    -1  -4  87 SW5       30.65R WCI -11
SEDALIA        CLOUDY     0  -2  91 SW6       30.67F WCI -12
WARRENSBURG    CLOUDY    -4  -8  84 S3        30.69S

$$
MOZ051-052-059>065-171500-
...EAST CENTRAL MISSOURI...

CITY           SKY/WX    TMP DP  RH WIND       PRES   REMARKS
ST LOUIS INTL  CLOUDY     5   0  79 W8        30.68R WCI  -8

$$
MOZ072>076-082>087-097>100-106>115-171500-
...SOUTH CENTRAL AND SOUTHEAST MISSOURI...

CITY           SKY/WX    TMP DP  RH WIND       PRES   REMARKS
CAPE GIRARDEAU FAIR       9   3  77 W5        30.71R WCI   1
POPLAR BLUFF   FAIR     N/A N/A N/A CALM      30.73S
WEST PLAINS    CLOUDY    -1  -5  82 W3        30.64S

$$



USA.gov is the U.S. government's official web portal to all federal, state and local government web resources and services.